Regional Weather Roundup
Issued by NWS Wakefield, VA

Home | Current Version | Previous Version | Graphics & Text | Print | Product List | Glossary On
Versions: 1 2 3 4 5 6 7 8 9 10 11 12 13 14 15 16 17 18 19 20 21 22 23 24 25 26 27 28 29 30 31 32 33 34 35 36 37 38 39 40 41 42 43 44 45 46 47 48 49 50
000
ASUS41 KAKQ 211610
RWRAKQ

REGIONAL WEATHER ROUNDUP
NATIONAL WEATHER SERVICE WAKEFIELD VA
1200 PM EDT THU AUG 21 2014

Note: "fair" indicates few or no clouds below 12,000 feet with no
significant weather and/or obstructions to visibility. * = Denotes
station may not report precipitation (e.g., rain,snow,etc.),
thunder or fog.

VAZ042-051-052>054-056-211700-
NORTHERN VIRGINIA

CITY           SKY/WX    TMP DP  RH WIND       PRES   REMARKS
WASH NATIONAL  PTSUNNY   83  70  64 S6        30.04F
DULLES         PTSUNNY   79  70  74 CALM      30.05F
FORT BELVOIR   SUNNY     83  71  66 S3        30.05F
QUANTICO       PTSUNNY   79  72  79 CALM      30.05F
FREDERICKSBRG* SUNNY     84  73  71 CALM      30.04F
STAFFORD*      SUNNY     80  78  92 CALM      30.09F
WARRENTON      SUNNY     81  77  86 CALM      30.05F
CULPEPER*      SUNNY    N/A N/A N/A CALM      30.06F
MANASSAS*      SUNNY     77  75  94 S6        30.06F
LEESBURG*      SUNNY     82  73  74 CALM      30.06F HAZE
WINCHESTER     MOSUNNY   82  68  61 NW3       30.05F
$$

VAZ048-049-060>072-079>083-211700-
CENTRAL AND SOUTH CENTRAL VIRGINIA...AND NORTH CENTRAL NORTH CAROLINA

CITY           SKY/WX    TMP DP  RH WIND       PRES   REMARKS
RICHMOND       MOSUNNY   88  71  57 W5        30.04F
CHESTERFIELD*  SUNNY    N/A N/A N/A N3        30.06F
HANOVER        SUNNY     85  71  63 SW5       30.06F
TAPPAHANNOCK*  SUNNY     84  68  58 CALM      30.05F
CHARLOTTSVILLE SUNNY     82  71  69 CALM      30.06F
ORANGE*        SUNNY     82  70  65 CALM      30.06F
LOUISA*        SUNNY     82  72  69 CALM      30.05F
FARMVILLE*     SUNNY     86  70  58 NW3       30.03F
SOUTH HILL*    SUNNY     88  72  58 CALM      30.11F
ROANOKE RAPIDS SUNNY     84  72  65 CALM      30.05F
RALEIGH        MOSUNNY   87  72  60 NW3       30.08F
$$

VAZ088>098-211700-
SOUTHEAST VIRGINIA

CITY           SKY/WX    TMP DP  RH WIND       PRES   REMARKS
NORFOLK        MOSUNNY   83  74  74 NE5       30.03F
VIRGINIA BEACH MOSUNNY   85  75  72 NW8       30.02F
NORFOLK NAVAL  MOSUNNY   84  74  71 W6        30.05F
WEST POINT*    SUNNY     85  69  57 CALM      30.06F
NEWPORT NEWS   SUNNY     89  73  59 NW5       30.03F HX  97
LANGLEY AFB    MOSUNNY   85  74  69 CALM      30.03F
FORT EUSTIS    SUNNY     83  71  66 NW5       30.03F
WILLIAMSBURG*  SUNNY     90  73  58 CALM      30.05F HX  98
FRANKLIN*      SUNNY     84  72  65 N5        30.04F
WAKEFIELD      SUNNY     85  71  63 VRB6      30.05F
$$

VAZ020-022-025-037-045-211700-
WESTERN AND SOUTHWEST VIRGINIA

CITY           SKY/WX    TMP DP  RH WIND       PRES   REMARKS
STAUNTON*      MOSUNNY   83  63  50 CALM      30.11S
HOT SPRINGS VA MOSUNNY   70  62  76 NW6       30.26S
LYNCHBURG        N/A    N/A N/A N/A MISG      30.11F
DANVILLE       MOSUNNY   85  70  60 N5        30.10F
MARTINSVILLE   MOSUNNY   85  66  53 NW7       30.15S
ROANOKE        MOSUNNY   82  67  60 S7        30.13F
BLACKSBURG     SUNNY     81  68  65 NW9       30.20S
DUBLIN*        MOSUNNY   81  66  60 W3        30.19F
MARION*        SUNNY     77  67  72 SW8G16    30.25R
HILLSVILLE*    SUNNY     76  65  67 NW8       30.23R
RICHLANDS*     MOSUNNY   77  67  71 W5        30.24S
WISE*          CLOUDY    73  70  88 SE5       30.25F
ABINGDON*      CLOUDY    74  67  78 W6        30.24R
$$

MDZ021>025-VAZ099-100-211700-
SOUTHERN MARYLAND AND THE DELMARVA PENINSULA

CITY           SKY/WX    TMP DP  RH WIND       PRES   REMARKS
PATUXENT RIVER MOSUNNY   82  72  71 E6        30.03R
BAY BRIDGE APT   N/A     81  70  69 CALM      30.04F
LEONARDTOWN    MOSUNNY   82  70  65 SW3       30.05F
DOVER          CLOUDY    78  73  83 SE8       30.04S
GEORGETOWN     CLOUDY    82  70  66 SE6       30.05S
EASTON         PTSUNNY   84  73  70 CALM      30.07F
CAMBRIDGE      MOSUNNY   84  70  61 CALM      30.03S
SALISBURY      PTSUNNY   85  72  65 E3        30.03F
OCEAN CITY     MOSUNNY   78  71  79 SE10      30.05F
WALLOPS ISLAND PTSUNNY   83  74  74 S9        30.04F
ACCOMACK*      PTSUNNY   81  73  78 W6        30.03F
$$

NCZ012>017-030>032-211700-
EASTERN NORTH CAROLINA

CITY           SKY/WX    TMP DP  RH WIND       PRES   REMARKS
ELIZABETH CITY SUNNY     85  74  69 W8        30.04F
AHOSKIE*       SUNNY     83  73  72 CALM      30.04F
EDENTON*       SUNNY     84  76  78 SW6       30.05S
CURRITUCK*     SUNNY     88  71  57 CALM      30.04S
KILL DEVIL HLS MOSUNNY   84  76  74 S6        30.04R
MANTEO         MOSUNNY   82  75  78 S7        30.05R
CAPE HATTERAS  MOSUNNY   81  76  84 VRB3      30.07R
GOLDSBORO      SUNNY     86  79  78 N3        30.03F HX 100
WASHINGTON     SUNNY     86  76  71 NW3       30.05F HX  96
GREENVILLE     MOSUNNY   86  75  70 NW3       30.06F HX  95
NEW BERN       SUNNY     90  76  63 W5        30.05F HX 101
WILMINGTON     MOSUNNY   92  73  53 NW5       30.05F HX 100
$$

VAZ048-211700-
ELSEWHERE

CITY           SKY/WX    TMP DP  RH WIND       PRES   REMARKS
HARRISBURG PA  MOSUNNY   81  70  69 CALM      30.03F
BALTIMORE      PTSUNNY   83  71  67 VRB3      30.03F
ANNAPOLIS      MOSUNNY   78  72  81 SE9       30.03F
ANDREWS AFB    SUNNY     83  70  65 W6        30.05F
WILMINGTON DE  CLOUDY    77  69  76 VRB6      30.06S
PHILADELPHIA   PTSUNNY   80  66  62 SW3       30.05F
WILDWOOD NJ*   PTSUNNY   81  66  61 SE8       30.06F
ATLANTIC CITY  SUNNY     79  64  60 E9        30.05F
HENDERSON NC   MOSUNNY   84  71  63 N7        30.08F
GREENSBORO     PTSUNNY   84  64  50 NW6       30.12S
ROCKY MOUNT    MOSUNNY   85  74  69 W5        30.05F
FAYETTEVILLE   MOSUNNY   91  69  48 N5        30.06F HX  96
CHARLOTTE      MOSUNNY   88  63  43 VRB5      30.13S
$$

VAZ100-211700-
MARINE

STATION/POSITION TIME  TEMP    WIND        PRES    WAVE   SWELL
                       AIR SEA DIR/SP/G            HT/PER HT/PER
                 (UTC) (F)     (DEG/KT/KT) (MB)    (FT/S) (FT/S)
44066 TX TWR #4  1600   70 73   50/ 10/ 12 1017.6F   3/ 6   3/ 6
CAPE MAY NJ      1600   76 80  140/  6/  8 1017.2F
LEWES DE         1600   76 75  110/  8/ 10 1017.3S
15NM E FENWICK I 1600   75 76              1017.6F   3/ 6
OCEAN-CITY-INLET 1600   77 76  140/  6/  9 1017.2S
WACHAPREAGUE VA  1600   81 80  170/  5/  7 1016.9F
THOMAS POINT MD  1600   77 78  120/  4/  5 1017.8F
GOOSES REEF MD   1600   78     100/  4/  4 1017.7F
COVE POINT MD    1600   77     100/  4/  4 1017.1F
SOLOMONS ISLAND  1600      80                N/A
BISHOPS HEAD MD  1600   78 79  250/  2/  3 1017.0S
PINEY POINT MD   1600          330/  5/  6   N/A
POTOMAC MD       1600   78     260/  4/  4 1016.7S
CAMBRIDGE MD     1600   78 78  340/  6/  8 1016.8F
LEWISETTA VA     1600   78 78   70/  4/  5 1016.9F
RAPPAHANNOCK LGT 1600          300/  5/  7 1017.8F
STINGRAY PT      1600   78      10/  2/  2 1018.1F
YORK RVR RNG VA  1600   81     310/  1/  1 1016.7F
YORKTOWN VA      1600   80 80  310/  5/  6 1016.9F
JAMESTOWN VA     1600   78     300/  2/  2   N/A
DOMINION TERM VA 1600   77     310/  7/  7 1017.4F
KIPTOPEKE VA     1600      81  290/  6/  8   N/A
CHES BAY BRIDGE  1600   80 79  320/  2/  3 1016.7F
CAPE HENRY VA    1600   78     320/  8/  9 1015.9F
CHESAPEAKE LGHT  1500   78     200/  9/ 10 1018.0R
WILLOUBY STN VA  1600   78     240/  6/  7 1016.0F
S CRANEY ISL VA  1600          320/  5/  9 1016.9F
CAPE HENRY BUOY  1600      79                N/A     2/ 6
1ST LANDING BUOY 1600   78     340/  6/  6 1017.0F
CAPE CHARLES BUO 1600      78                N/A     2/ 7   2/ 7
OFFSHORE WE BUOY 1600      78                N/A     2/ 7   2/ 7
64NM E OF VA BCH 1600   78 78  170/  8/ 10 1017.0F   2/ 6   2/ 6
DUCK PIER NC     1600   80 78  220/  7/  9 1016.6S
44056 DUCK FRF   1600                        N/A     2/ 8
OREGON INLET NC  1600   81 82  190/ 15/ 16 1017.8R
HATTERAS NC      1600   82 81  210/  5/  7 1018.6F
DIAMOND SHLS NC  1600   80     190/  4/  6 1018.1R   2/ 9   2/ 9
CAPE LOOKOUT NC  1500   82     150/  5/  5 1017.9R
$$



USA.gov is the U.S. government's official web portal to all federal, state and local government web resources and services.